(94882) = 2001 XC244 = 1999 CV43

Discovered at Socorro on 2001-12-15 by LINEAR.

Orbit

Orbit type: Main Belt

Note: WebGL enabled browser required.

epoch2023-09-13.0
epoch JD2460200.5
perihelion date2022-03-16.93741
perihelion JD2459655.43741
argument of perihelion (°)162.30080
ascending node (°)43.33834
inclination (°)5.98801
eccentricity0.1054815
perihelion distance (AU)2.1642842
Tisserand w.r.t. Jupiter3.5
ΔV w.r.t. Earth (km/sec)9.4
semimajor axis (AU)2.4194964
mean anomaly (°)142.74561
mean daily motion (°/day)0.26188850
aphelion distance (AU)2.675
period (years)3.76
P-vector [x]-0.90039870
P-vector [y]-0.41071866
P-vector [z]-0.14350040
Q-vector [x]0.42913430
Q-vector [y]-0.78414349
Q-vector [z]-0.44828869
absolute magnitude16.04
phase slope0.15
uncertainty0
referenceMPEC 2024-A48
observations used894
oppositions17
arc length (days)9066
first opposition used1999
last opposition used2023
residual rms (arc-secs)0.71
perturbers coarse indicatorM-v
perturbers precise indicator003Ek
first observation date used1999-02-10.0
last observation date used2023-12-07.0
computer nameMPCLINUX
JD of orbit computation2456847.774815
perihelion JD uncertainty (days)1.0138E-04
argument of perihelion uncertainty (°)5.0347E-05
ascending node uncertainty (°)4.4450E-05
inclination uncertainty (°)6.7442E-06
eccentricity uncertainty 6.3096E-08
perihelion distance uncertainty (AU)1.5410E-07
Minimum Orbit Intersection Distances (in AU)
for orbit epoch: 2460200.5, reference: E2024-A48
Mercury1.72421
Venus1.44239
Earth1.15938
Mars0.53815
Jupiter2.27986
Saturn6.49172
Uranus16.2184
Neptune27.1636

Observations

918 total observations over interval: 1999 02 10.31990 – 2023 12 07.119548
These data are available for download (format description).

Date (UT) J2000 RA J2000 Dec Magn Location Ref
1999 02 10.31990 10 18 47.74 +21 33 39.9 18.9   704 – Lincoln Laboratory ETS, New Mexico MPS 3928
1999 02 10.34101 10 18 46.47 +21 33 47.1 18.9   704 – Lincoln Laboratory ETS, New Mexico MPS 3928
1999 02 10.36198 10 18 45.16 +21 33 56.3 19.1   704 – Lincoln Laboratory ETS, New Mexico MPS 3928
1999 02 10.38293 10 18 43.93 +21 34 01.4 19.4   704 – Lincoln Laboratory ETS, New Mexico MPS 3928
1999 02 13.38627 10 15 46.22 +21 50 48.0 18.7   704 – Lincoln Laboratory ETS, New Mexico MPS 3928
1999 02 13.40024 10 15 45.59 +21 50 51.8 18.2   704 – Lincoln Laboratory ETS, New Mexico MPS 3928
1999 02 13.41424 10 15 44.63 +21 50 55.5 18.2   704 – Lincoln Laboratory ETS, New Mexico MPS 3928
2001 10 21.42006 03 50 46.31 +20 56 36.2 19.5   704 – Lincoln Laboratory ETS, New Mexico MPS 49790
2001 10 21.43668 03 50 45.56 +20 56 34.6 19.9   704 – Lincoln Laboratory ETS, New Mexico MPS 49790
2001 10 21.45327 03 50 44.85 +20 56 35.0 19.7   704 – Lincoln Laboratory ETS, New Mexico MPS 49790
2001 10 21.48649 03 50 43.34 +20 56 35.3 19.7   704 – Lincoln Laboratory ETS, New Mexico MPS 49790
2001 11 09.40871 03 33 24.76 +20 44 51.0 19.2   644 – Palomar Mountain/NEAT MPS 49790
2001 11 09.42991 03 33 23.39 +20 44 49.4 20.1   644 – Palomar Mountain/NEAT MPS 49790
2001 11 09.45117 03 33 21.95 +20 44 47.3 19.8   644 – Palomar Mountain/NEAT MPS 49790
2001 11 19.28543 03 22 39.34 +20 28 57.8 19.2   704 – Lincoln Laboratory ETS, New Mexico MPS 49790
2001 11 19.31477 03 22 37.38 +20 28 54.7 20.0   704 – Lincoln Laboratory ETS, New Mexico MPS 49790
2001 11 19.34411 03 22 35.39 +20 28 51.3 19.5   704 – Lincoln Laboratory ETS, New Mexico MPS 49790
2001 11 21.22855 03 20 32.73 +20 25 19.8 19.4   704 – Lincoln Laboratory ETS, New Mexico MPS 49790
2001 11 21.24321 03 20 31.73 +20 25 18.1 19.6   704 – Lincoln Laboratory ETS, New Mexico MPS 49790
2001 11 21.25787 03 20 30.76 +20 25 16.2 19.5   704 – Lincoln Laboratory ETS, New Mexico MPS 49790
2001 11 21.27253 03 20 29.80 +20 25 14.9 19.5   704 – Lincoln Laboratory ETS, New Mexico MPS 49790
2001 11 21.28720 03 20 28.85 +20 25 12.9 19.8   704 – Lincoln Laboratory ETS, New Mexico MPS 49790
2001 12 15.14799 02 59 04.32 +19 42 34.1 19.7   704 – Lincoln Laboratory ETS, New Mexico MPS 45418
2001 12 15.16308 02 59 03.72 +19 42 33.2 19.7   704 – Lincoln Laboratory ETS, New Mexico MPS 45418
2001 12 15.18059 02 59 03.07 +19 42 32.5 20.1   704 – Lincoln Laboratory ETS, New Mexico MPS 45418
2001 12 15.19793 02 59 02.34 +19 42 31.0 19.9   704 – Lincoln Laboratory ETS, New Mexico MPS 45418
2001 12 15.21303 02 59 01.75 +19 42 29.6 19.8   704 – Lincoln Laboratory ETS, New Mexico MPS 45418
2001 12 18.14807 02 57 18.73 +19 39 06.9 19.6   704 – Lincoln Laboratory ETS, New Mexico MPS 49790
2001 12 18.16357 02 57 18.40 +19 39 05.8 20.5   704 – Lincoln Laboratory ETS, New Mexico MPS 49790
2001 12 18.17979 02 57 17.75 +19 39 05.2 20.1   704 – Lincoln Laboratory ETS, New Mexico MPS 49790
2001 12 18.19497 02 57 17.16 +19 39 04.1 19.9   704 – Lincoln Laboratory ETS, New Mexico MPS 49790
2001 12 18.21017 02 57 16.69 +19 39 02.7 19.9   704 – Lincoln Laboratory ETS, New Mexico MPS 49790
2001 12 19.07747 02 56 49.46 +19 38 10.5 19.4   704 – Lincoln Laboratory ETS, New Mexico MPS 45418
2001 12 19.09265 02 56 48.88 +19 38 09.2 20.0   704 – Lincoln Laboratory ETS, New Mexico MPS 45418
2001 12 19.10794 02 56 48.48 +19 38 07.8 20.0   704 – Lincoln Laboratory ETS, New Mexico MPS 45418
2001 12 19.12314 02 56 47.92 +19 38 07.9 19.8   704 – Lincoln Laboratory ETS, New Mexico MPS 45418
2001 12 19.13834 02 56 47.44 +19 38 07.3 19.8   704 – Lincoln Laboratory ETS, New Mexico MPS 45418
2003 02 24.12289 12 58 38.73 +01 35 35.5 18.7 R 599 – Campo Imperatore-CINEOS MPS 74173
2003 02 24.13231 12 58 38.57 +01 35 36.6 18.6 R 599 – Campo Imperatore-CINEOS MPS 74173
2003 02 24.14173 12 58 38.39 +01 35 37.8 18.7 R 599 – Campo Imperatore-CINEOS MPS 74173
2003 02 24.15115 12 58 38.22 +01 35 39.1 18.8 R 599 – Campo Imperatore-CINEOS MPS 74173
2003 03 06.37295 12 54 08.15 +02 02 37.8 18.9   704 – Lincoln Laboratory ETS, New Mexico MPS 74173
2003 03 06.38611 12 54 07.68 +02 02 40.2 19.2   704 – Lincoln Laboratory ETS, New Mexico MPS 74173
2003 03 06.39947 12 54 07.16 +02 02 43.4 19.1   704 – Lincoln Laboratory ETS, New Mexico MPS 74173
2003 03 06.41265 12 54 06.68 +02 02 45.3 18.9   704 – Lincoln Laboratory ETS, New Mexico MPS 74173
2003 03 06.42573 12 54 06.11 +02 02 48.6 19.3   704 – Lincoln Laboratory ETS, New Mexico MPS 74173
2003 03 09.31545 12 52 16.18 +02 12 13.1 18.6   704 – Lincoln Laboratory ETS, New Mexico MPS 74173
2003 03 09.34178 12 52 15.07 +02 12 17.7 18.8   704 – Lincoln Laboratory ETS, New Mexico MPS 74173
2003 03 09.35503 12 52 14.49 +02 12 20.4 18.9   704 – Lincoln Laboratory ETS, New Mexico MPS 74173
2003 03 15.37130 12 47 44.64 +02 33 23.3 19.6   608 – Haleakala-AMOS MPS 76099
2003 03 15.38237 12 47 44.07 +02 33 25.6 19.5   608 – Haleakala-AMOS MPS 76099
2003 03 15.39308 12 47 43.52 +02 33 28.4 19.4   608 – Haleakala-AMOS MPS 76099
2003 03 23.28380 12 40 44.76 +03 01 44.9 19.5 R 333 – Desert Eagle Observatory MPS 76099
2003 03 23.28992 12 40 44.44 +03 01 45.3 19.2 R 333 – Desert Eagle Observatory MPS 76099
2003 03 23.30082 12 40 43.75 +03 01 48.5 19.3 R 333 – Desert Eagle Observatory MPS 76099
2003 03 23.30698 12 40 43.43 +03 01 50.1 18.9 R 333 – Desert Eagle Observatory MPS 76099
2003 03 25.28445 12 38 50.70 +03 08 39.5 18.9 R 683 – Goodricke-Pigott Observatory, Tucson MPS 76099
2003 03 25.29563 12 38 50.05 +03 08 41.3 18.8 R 683 – Goodricke-Pigott Observatory, Tucson MPS 76099
2003 03 25.30902 12 38 49.22 +03 08 44.2 18.8 R 683 – Goodricke-Pigott Observatory, Tucson MPS 76099
2003 03 26.28236 12 37 53.08 +03 12 01.1 19.3 R 683 – Goodricke-Pigott Observatory, Tucson MPS 76099
2003 03 26.29355 12 37 52.44 +03 12 03.0 18.8 R 683 – Goodricke-Pigott Observatory, Tucson MPS 76099
2003 03 26.30693 12 37 51.59 +03 12 05.3 18.7 R 683 – Goodricke-Pigott Observatory, Tucson MPS 76099
2003 03 29.27172 12 34 58.21 +03 21 39.2 19.0 R 683 – Goodricke-Pigott Observatory, Tucson MPS 76099
2003 03 29.28172 12 34 57.63 +03 21 41.0 19.1 R 683 – Goodricke-Pigott Observatory, Tucson MPS 76099
2003 03 29.29630 12 34 56.80 +03 21 42.9 20.9 R 683 – Goodricke-Pigott Observatory, Tucson MPS 76099
2003 03 30.26523 12 33 59.61 +03 24 42.1 18.9 R 683 – Goodricke-Pigott Observatory, Tucson MPS 76099
2003 03 30.27829 12 33 58.89 +03 24 43.5 19.7 R 683 – Goodricke-Pigott Observatory, Tucson MPS 76099
2003 03 30.28976 12 33 58.06 +03 24 45.7 18.7 R 683 – Goodricke-Pigott Observatory, Tucson MPS 76099
2003 03 30.29154 12 33 58.09 +03 24 45.7 18.3   704 – Lincoln Laboratory ETS, New Mexico MPS 76099
2003 03 30.30413 12 33 57.31 +03 24 48.5 18.5   704 – Lincoln Laboratory ETS, New Mexico MPS 76099
2003 03 30.31680 12 33 56.55 +03 24 51.2 18.3   704 – Lincoln Laboratory ETS, New Mexico MPS 76099
2003 03 30.33028 12 33 55.69 +03 24 52.8 18.4   704 – Lincoln Laboratory ETS, New Mexico MPS 76099
2003 03 30.34312 12 33 55.07 +03 24 53.5 18.2   704 – Lincoln Laboratory ETS, New Mexico MPS 76099
2003 04 01.26109 12 32 02.30 +03 30 29.1 18.5 R 683 – Goodricke-Pigott Observatory, Tucson MPS 78210
2003 04 01.27227 12 32 01.59 +03 30 30.2 18.7 R 683 – Goodricke-Pigott Observatory, Tucson MPS 78210
2003 04 01.28566 12 32 00.80 +03 30 32.5 19.6 R 683 – Goodricke-Pigott Observatory, Tucson MPS 78210
2003 04 02.31073 12 31 00.45 +03 33 23.5 18.5   704 – Lincoln Laboratory ETS, New Mexico MPS 76099
2003 04 02.33469 12 30 58.90 +03 33 27.1 18.6   704 – Lincoln Laboratory ETS, New Mexico MPS 76099
2003 04 02.34670 12 30 58.27 +03 33 28.2 19.2   704 – Lincoln Laboratory ETS, New Mexico MPS 76099
2003 04 03.25253 12 30 05.59 +03 35 48.9 18.6 R 683 – Goodricke-Pigott Observatory, Tucson MPS 78210
2003 04 03.26469 12 30 04.86 +03 35 51.4 19.1 R 683 – Goodricke-Pigott Observatory, Tucson MPS 78210
2003 04 03.27710 12 30 04.05 +03 35 52.8 19.0 R 683 – Goodricke-Pigott Observatory, Tucson MPS 78210
2003 04 09.24262 12 24 25.21 +03 48 40.4 18.5   704 – Lincoln Laboratory ETS, New Mexico MPS 76099
2003 04 09.25407 12 24 24.56 +03 48 41.6 18.5   704 – Lincoln Laboratory ETS, New Mexico MPS 76099
